[[{"header":{"parameterUnit":"m.s-1","parameterCategory":1,"la1":30.2991,"la2":30.254,"lo1":-89.0895,"lo2":-89.0444,"dy":0.0017,"dx":0.0017,"nx":28,"ny":28,"refTime":"2025-02-09T03:00:00:Z","depth":0,"parameterNumber":2,"parameterNumberName":"U-component_of_WINDS"},"data":[0,0,0,0,0,0,0,0,0,0,0,0,0,0,0,0,0,0,0,0,0,0,0,0,0,0,0,0,0,0,0,0,0,0,0,0,0,0,0,0,0,0,0,0,0,0,0,0,0,0,0,0,0,0,0,0,0,0,-1.1401,-1.1402,0,-1.1436,-1.1436,-1.1436,-1.1444,-1.1444,-1.1444,-1.1443,-1.148,-1.1481,-1.1482,0,0,0,0,0,0,0,0,0,0,0,0,0,-1.1343,-1.1344,-1.1401,-1.1402,-1.1402,-1.1436,-1.1436,-1.1436,-1.1444,-1.1444,-1.1444,-1.1443,-1.1479,-1.1481,-1.1482,0,0,0,0,0,0,0,0,0,0,0,0,0,-1.1372,-1.1344,-1.1401,-1.141,-1.1411,-1.1435,-1.1436,-1.1437,-1.1444,-1.1444,-1.1443,-1.1443,-1.1479,-1.1481,-1.1482,-1.1501,0,0,-1.1488,-1.1489,0,0,0,0,0,0,0,0,-1.137,-1.1374,-1.1408,-1.1409,-1.1411,-1.1435,-1.1429,-1.1458,-1.1444,-1.1432,-1.1443,-1.1443,-1.1465,-1.1468,-1.1475,-1.1503,-1.1504,-1.1488,-1.1489,-1.149,-1.149,0,0,0,0,0,0,0,-1.1368,-1.1373,-1.1415,-1.1409,-1.141,-1.1412,-1.1416,-1.1434,-1.145,-1.1433,-1.1433,-1.1437,-1.1466,-1.1474,-1.1476,-1.1505,-1.1488,-1.149,-1.1491,-1.1491,-1.1548,-1.1549,0,0,0,0,0,0,-1.1365,-1.1371,-1.1414,-1.1416,-1.1389,-1.1414,-1.1418,-1.1428,-1.145,-1.1453,-1.1438,-1.1437,-1.1471,-1.1474,-1.1478,-1.15,-1.149,-1.1492,-1.1493,-1.1548,-1.1548,-1.1549,0,0,0,0,0,0,-1.1363,-1.1368,-1.1412,-1.1394,-1.1399,-1.1415,-1.1426,-1.1429,-1.1436,-1.1454,-1.1457,-1.1443,-1.1471,-1.1475,-1.1495,-1.1502,-1.1492,-1.1494,-1.1547,-1.1548,-1.1548,-1.1546,0,0,0,0,0,0,-1.1362,-1.1368,-1.1375,-1.1394,-1.14,-1.1429,-1.1427,-1.1429,-1.1439,-1.144,-1.1459,-1.1462,-1.1471,-1.1492,-1.1497,-1.1504,-1.1495,-1.1547,-1.1548,-1.1548,-1.1545,-1.1546,-1.1547,0,0,0,0,0,-1.1359,-1.1373,-1.1375,-1.138,-1.1409,-1.1429,-1.1433,-1.1442,-1.144,-1.1447,-1.1458,-1.1461,-1.15,-1.1494,-1.1499,-1.1507,-1.1546,-1.1547,-1.1548,-1.1545,-1.1546,-1.1547,0,0,0,0,0,0,-1.1355,-1.1376,-1.1378,-1.1398,-1.1412,-1.143,-1.144,-1.1443,-1.1458,-1.1458,-1.1469,-1.1474,-1.1492,-1.1502,-1.1495,-1.1526,-1.1523,-1.1525,-1.1519,-1.152,-1.1521,-1.1518,-1.1497,0,0,0,0,0,-1.1356,-1.137,-1.1388,-1.1404,-1.141,-1.1424,-1.1433,-1.1439,-1.1453,-1.1459,-1.1472,-1.1486,-1.1502,-1.1512,-1.1527,-1.1547,-1.1551,-1.1555,-1.1556,-1.1556,-1.1558,-1.1569,-1.157,-1.1552,-1.1552,-1.1552,0,0,-1.1359,-1.1372,-1.138,-1.1403,-1.1414,-1.1428,-1.1429,-1.1444,-1.1455,-1.1462,-1.1481,-1.149,-1.1507,-1.1527,-1.1536,-1.1536,-1.1564,-1.1558,-1.1558,-1.1559,-1.157,-1.1571,-1.1573,-1.1553,-1.1552,-1.1552,0,0,-1.1371,-1.1383,-1.1397,-1.1408,-1.1425,-1.1434,-1.1437,-1.1455,-1.1462,-1.1481,-1.1486,-1.15,-1.1526,-1.1538,-1.1547,-1.1563,-1.1567,-1.1568,-1.1572,-1.1583,-1.1584,-1.1586,-1.1591,-1.1593,-1.157,-1.157,-1.157,0,-1.1373,-1.1394,-1.1404,-1.1419,-1.1428,-1.1435,-1.145,-1.146,-1.1481,-1.1488,-1.1487,-1.152,-1.1531,-1.1554,-1.1558,-1.1565,-1.1569,-1.1566,-1.1583,-1.1585,-1.1586,-1.1591,-1.1593,-1.157,-1.157,-1.157,-1.157,0,-1.1395,-1.141,-1.1419,-1.1439,-1.145,-1.1464,-1.1476,-1.1486,-1.1491,-1.15,-1.152,-1.1534,-1.1552,-1.1558,-1.1564,-1.1581,-1.158,-1.1581,-1.1578,-1.1588,-1.1593,-1.1595,-1.157,-1.157,-1.157,-1.157,0,0,-1.1405,-1.1429,-1.1433,-1.1441,-1.146,-1.1472,-1.1487,-1.1504,-1.1512,-1.1527,-1.1539,-1.1561,-1.1562,-1.1573,-1.158,-1.1589,-1.16,-1.1589,-1.1589,-1.159,-1.162,-1.1618,-1.162,-1.1603,-1.1603,-1.1604,-1.1618,0,-1.1419,-1.1445,-1.1454,-1.1476,-1.149,-1.1496,-1.1509,-1.1522,-1.1531,-1.1544,-1.1555,-1.157,-1.157,-1.1576,-1.1586,-1.1597,-1.1606,-1.1596,-1.1614,-1.1615,-1.1609,-1.1623,-1.1622,-1.1635,-1.162,-1.1621,-1.1621,0,-1.1439,-1.1453,-1.1475,-1.1492,-1.1498,-1.151,-1.1526,-1.1538,-1.1553,-1.1559,-1.1571,-1.1577,-1.1593,-1.159,-1.1612,-1.1605,-1.1613,-1.162,-1.162,-1.1622,-1.1618,-1.1624,-1.1639,-1.1641,-1.1624,-1.1624,-1.1624,0,-1.1443,-1.1467,-1.1484,-1.1491,-1.1512,-1.1519,-1.1528,-1.1543,-1.1552,-1.1567,-1.1573,-1.1589,-1.1598,-1.1611,-1.1621,-1.1618,-1.1642,-1.164,-1.1647,-1.1647,-1.1652,-1.1651,-1.1667,-1.1658,-1.1658,-1.1658,-1.1658,0,-1.1457,-1.147,-1.1486,-1.1496,-1.1511,-1.1522,-1.1537,-1.1546,-1.1559,-1.1572,-1.1579,-1.159,-1.1604,-1.1617,-1.1626,-1.1642,-1.1647,-1.1652,-1.1654,-1.1651,-1.165,-1.1656,-1.1655,-1.1659,-1.1659,-1.1658,-1.1658,0,-1.1464,-1.1475,-1.1493,-1.1511,-1.1515,-1.1526,-1.1541,-1.1551,-1.156,-1.1576,-1.158,-1.1595,-1.1611,-1.1622,-1.1643,-1.1649,-1.1667,-1.1669,-1.1661,-1.1662,-1.1668,-1.1667,-1.1688,-1.1692,-1.1681,-1.1681,-1.1681,0,-1.1472,-1.1482,-1.15,-1.1509,-1.1517,-1.1531,-1.1541,-1.1552,-1.1562,-1.1579,-1.1587,-1.1604,-1.1617,-1.1643,-1.1655,-1.1671,-1.1674,-1.168,-1.1676,-1.1673,-1.1673,-1.1672,-1.1673,-1.168,-1.168,-1.168,-1.168,0,-1.1484,-1.1489,-1.1502,-1.1517,-1.1528,-1.1541,-1.1554,-1.1561,-1.1574,-1.1585,-1.1601,-1.1611,-1.1632,-1.1648,-1.1665,-1.1675,-1.168,-1.1682,-1.1684,-1.1681,-1.1675,-1.1678,-1.1662,-1.1681,-1.1681,-1.1681,-1.1681,-1.1681,-1.1491,-1.1501,-1.1515,-1.1529,-1.154,-1.1552,-1.1562,-1.1572,-1.1586,-1.1603,-1.1609,-1.1626,-1.1641,-1.1664,-1.1674,-1.1687,-1.1687,-1.1691,-1.1692,-1.1692,-1.1691,-1.1674,-1.169,-1.169,-1.169,-1.169,-1.169,0,-1.1504,-1.1513,-1.1526,-1.1543,-1.1555,-1.1558,-1.1573,-1.1582,-1.1596,-1.1609,-1.1623,-1.1641,-1.1657,-1.1671,-1.1687,-1.1695,-1.1697,-1.1699,-1.1698,-1.17,-1.1691,-1.1687,-1.1696,-1.1696,-1.1696,-1.1696,-1.1696,-1.1696,-1.1511,-1.1527,-1.1533,-1.1555,-1.1564,-1.158,-1.1588,-1.1599,-1.1609,-1.1629,-1.1642,-1.1651,-1.1664,-1.1682,-1.1696,-1.17,-1.1705,-1.1706,-1.171,-1.1701,-1.1701,-1.17,-1.1696,-1.1707,-1.1707,-1.1718,-1.1718,-1.1718]},{"header":{"parameterUnit":"m.s-1","parameterCategory":1,"la1":30.2991,"la2":30.254,"lo1":-89.0895,"lo2":-89.0444,"dy":0.0017,"dx":0.0017,"nx":28,"ny":28,"refTime":"2025-02-09T03:00:00:Z","depth":0,"parameterNumber":3,"parameterNumberName":"V-component_of_WINDS"},"data":[0,0,0,0,0,0,0,0,0,0,0,0,0,0,0,0,0,0,0,0,0,0,0,0,0,0,0,0,0,0,0,0,0,0,0,0,0,0,0,0,0,0,0,0,0,0,0,0,0,0,0,0,0,0,0,0,0,0,1.609,1.609,0,1.6078,1.6078,1.6078,1.6051,1.605,1.605,1.6049,1.6039,1.6039,1.6039,0,0,0,0,0,0,0,0,0,0,0,0,0,1.6089,1.6089,1.609,1.609,1.609,1.6078,1.6078,1.6078,1.6051,1.605,1.605,1.6049,1.6038,1.6039,1.6039,0,0,0,0,0,0,0,0,0,0,0,0,0,1.6085,1.6089,1.609,1.6075,1.6073,1.6078,1.6078,1.6078,1.6051,1.605,1.6049,1.6049,1.6038,1.6039,1.6039,1.6059,0,0,1.604,1.604,0,0,0,0,0,0,0,0,1.6085,1.6085,1.6077,1.6076,1.6074,1.6065,1.6074,1.6072,1.6051,1.606,1.6049,1.6048,1.6048,1.6048,1.6047,1.6058,1.6058,1.604,1.6041,1.6041,1.6041,0,0,0,0,0,0,0,1.6085,1.6085,1.6085,1.6077,1.6075,1.6069,1.6067,1.6073,1.6059,1.6059,1.6057,1.6056,1.6047,1.6047,1.6047,1.6057,1.604,1.6041,1.6041,1.6041,1.6083,1.6084,0,0,0,0,0,0,1.6088,1.6086,1.6086,1.6085,1.6077,1.6069,1.6068,1.6069,1.6059,1.6056,1.6056,1.6055,1.6047,1.6047,1.6047,1.6069,1.6041,1.6041,1.6041,1.6083,1.6084,1.6085,0,0,0,0,0,0,1.6088,1.6088,1.6086,1.6085,1.6084,1.607,1.6072,1.6069,1.6069,1.6057,1.6054,1.6059,1.6046,1.6046,1.6056,1.6068,1.6041,1.6042,1.6082,1.6083,1.6084,1.6113,0,0,0,0,0,0,1.6088,1.6088,1.6095,1.6085,1.6084,1.6095,1.6073,1.607,1.607,1.6067,1.6059,1.6056,1.6046,1.6055,1.6056,1.6068,1.6042,1.608,1.6082,1.6084,1.6111,1.6115,1.6119,0,0,0,0,0,1.6088,1.6104,1.6096,1.6096,1.6093,1.6096,1.6096,1.6082,1.6071,1.6078,1.607,1.6057,1.6066,1.6057,1.6057,1.6069,1.608,1.6082,1.6084,1.6109,1.6114,1.6119,0,0,0,0,0,0,1.6116,1.6102,1.6093,1.6106,1.6102,1.6091,1.61,1.6088,1.6088,1.6086,1.607,1.6068,1.608,1.6076,1.6065,1.6088,1.6071,1.6073,1.609,1.6095,1.6099,1.61,1.6042,0,0,0,0,0,1.6124,1.6128,1.6115,1.6128,1.6127,1.6114,1.6115,1.6105,1.6101,1.6099,1.6092,1.6089,1.6091,1.6093,1.6094,1.611,1.6108,1.6119,1.6123,1.6126,1.6128,1.6137,1.6142,1.6091,1.6091,1.6091,0,0,1.614,1.6133,1.6136,1.6134,1.613,1.6134,1.6113,1.6118,1.6121,1.61,1.6109,1.6103,1.6098,1.6112,1.6117,1.6108,1.6142,1.6129,1.6132,1.6132,1.6139,1.6144,1.6148,1.6093,1.6092,1.6092,0,0,1.6172,1.6167,1.6177,1.6173,1.6167,1.6158,1.6161,1.6151,1.6147,1.6155,1.6139,1.6143,1.6147,1.6144,1.6144,1.6174,1.6162,1.6175,1.6196,1.6204,1.6208,1.6212,1.6223,1.6227,1.6177,1.6177,1.6177,0,1.6193,1.6198,1.6183,1.619,1.619,1.617,1.618,1.6177,1.6173,1.6173,1.6163,1.6168,1.6163,1.6175,1.6183,1.6183,1.6185,1.6176,1.6209,1.6212,1.6215,1.6226,1.623,1.6179,1.6179,1.6179,1.6179,0,1.6224,1.6229,1.6238,1.6233,1.6233,1.6242,1.6229,1.6231,1.6221,1.6213,1.6222,1.6216,1.6216,1.6218,1.6209,1.6229,1.6224,1.6212,1.6195,1.6222,1.6232,1.6235,1.6181,1.6181,1.618,1.618,0,0,1.6274,1.626,1.6264,1.6262,1.6254,1.6257,1.6265,1.6264,1.6266,1.6264,1.627,1.6274,1.6263,1.6262,1.6252,1.6259,1.6284,1.6246,1.6246,1.6254,1.6307,1.6316,1.6321,1.6276,1.6277,1.6277,1.6307,0,1.6304,1.6316,1.6302,1.6317,1.6321,1.6303,1.6309,1.6305,1.6299,1.6301,1.6293,1.6297,1.6281,1.6281,1.6287,1.628,1.6295,1.6277,1.6282,1.6282,1.6284,1.6326,1.6336,1.6364,1.6311,1.6311,1.6312,0,1.634,1.6339,1.6354,1.6345,1.6346,1.6352,1.6351,1.6353,1.6348,1.6343,1.6342,1.633,1.6337,1.632,1.633,1.6319,1.632,1.6316,1.6317,1.6317,1.6299,1.6327,1.6373,1.6377,1.6317,1.6317,1.6317,0,1.6375,1.6377,1.6386,1.6385,1.6374,1.6379,1.6375,1.6369,1.637,1.6369,1.6369,1.6369,1.6369,1.6369,1.6358,1.6346,1.6369,1.6351,1.6365,1.6365,1.6371,1.6371,1.6418,1.6371,1.6371,1.6371,1.6371,0,1.641,1.642,1.6402,1.6407,1.6418,1.6403,1.6415,1.6409,1.6404,1.6408,1.6392,1.6397,1.6381,1.6384,1.6375,1.6385,1.6385,1.6381,1.6379,1.6383,1.6383,1.6383,1.6381,1.6372,1.6372,1.6372,1.6372,0,1.6451,1.6439,1.6448,1.6437,1.6435,1.6443,1.6434,1.6439,1.6431,1.6437,1.6438,1.6425,1.6428,1.6417,1.6418,1.6411,1.6426,1.642,1.6428,1.6426,1.6441,1.644,1.649,1.6496,1.6445,1.6446,1.6446,0,1.6474,1.6481,1.6471,1.6473,1.647,1.6473,1.6473,1.6459,1.646,1.6455,1.6461,1.6462,1.6462,1.6468,1.6459,1.646,1.6454,1.6472,1.6454,1.6458,1.6455,1.6455,1.6456,1.6475,1.6476,1.6477,1.6477,0,1.6517,1.651,1.6511,1.651,1.6511,1.651,1.6507,1.651,1.6494,1.6496,1.6499,1.6499,1.65,1.6502,1.6501,1.6497,1.6485,1.6482,1.6486,1.649,1.6495,1.6493,1.6438,1.6481,1.6481,1.6481,1.648,1.648,1.6549,1.6555,1.6549,1.6551,1.6547,1.6545,1.655,1.6542,1.6544,1.6543,1.6534,1.6539,1.6534,1.6531,1.6528,1.6532,1.6524,1.6528,1.653,1.6531,1.6534,1.6494,1.6531,1.6531,1.6531,1.6531,1.6531,0,1.6592,1.6587,1.6588,1.6585,1.6587,1.6574,1.6571,1.6573,1.6577,1.6573,1.6574,1.6577,1.6579,1.657,1.6571,1.6575,1.657,1.6576,1.6576,1.6575,1.6541,1.6538,1.658,1.658,1.658,1.658,1.658,1.658,1.6614,1.6623,1.6616,1.6623,1.6618,1.6622,1.6621,1.6619,1.6616,1.662,1.6621,1.6616,1.661,1.661,1.6611,1.6608,1.661,1.6618,1.6614,1.6582,1.6577,1.6573,1.657,1.6618,1.6618,1.6647,1.6648,1.6648]}]]